Flag for Norway Weather past 2 weeks in Kongsvinger, Norway

Now
59 °F

Clear.


Feels Like: 59 °F
Forecast: 56 / 77 °F
Wind: 1 mph from North

Location: Oslo Gardermoen Airport

Current Time: Aug 1, 2014 at 2:04:19 AM

Latest Report: Aug 1, 2014 at 12:50 AM


Visibility: 10 mi

Pressure: 29.68 "Hg

Humidity: 63%

Dew point: 46 °F

Location of KongsvingerLocation

Historic Weather in Kongsvinger — Graph

°F

Kongsvinger temperature yesterday

Maximum temperature yesterday: 72 °F (at 12:50 PM)
Minimum temperature yesterday: 55 °F (at 5:20 AM)
Average temperature yesterday: 65 °F

Past Weeks' High & Low Weather Summary

 TemperatureHumidityPressure
High88 °F (Jul 23, 4:50 PM)100% (Jul 18, 2:20 AM)30.33 "Hg (Jul 18, 2:20 AM)
Low50 °F (Jul 18, 3:20 AM)24% (Jul 23, 6:50 PM)29.59 "Hg (Jul 30, 2:50 PM)
Average69 °F63%30.03 "Hg
* Reported Jul 17 12:20 AM — Aug 1 12:50 AM, Kongsvinger, Weather by CustomWeather, © 2014

Note: Actual official high and low records may vary slightly from our data, if they occured in-between our weather recording intervals... More about our weather records

Advertising

Kongsvinger weather history for previous 24 hours

 ConditionsComfort  
Time TempWeatherWind HumidityBarometerVisibility
12:50 AM
Aug 1
59 °FClear.1 mph63%29.68 "Hg10 mi
12:20 AM59 °FPassing clouds.5 mph59%29.68 "HgN/A
11:50 PM
Jul 31
61 °FPassing clouds.3 mph55%29.68 "HgN/A
11:20 PM61 °FClear.5 mph59%29.68 "Hg10 mi
10:50 PM61 °FSunny.6 mph55%29.68 "Hg10 mi
10:20 PM63 °FPassing clouds.5 mph52%29.65 "HgN/A
9:50 PM66 °FPassing clouds.3 mph46%29.65 "HgN/A
9:20 PM68 °FSunny.2 mph43%29.65 "Hg10 mi
8:50 PM68 °FPassing clouds.8 mph43%29.65 "HgN/A
8:20 PM70 °FSunny.8 mph43%29.65 "Hg10 mi
7:50 PM70 °FSunny.9 mph43%29.65 "Hg10 mi
7:20 PM70 °FPassing clouds.10 mph43%29.62 "HgN/A
6:50 PM72 °FPassing clouds.12 mph38%29.65 "HgN/A
6:20 PM72 °FSunny.13 mph41%29.62 "Hg10 mi
5:50 PM72 °FSunny.13 mph41%29.65 "Hg10 mi
5:20 PM70 °FSunny.14 mph43%29.65 "Hg10 mi
4:50 PM70 °FScattered showers. Clear.10 mph46%29.65 "HgN/A
4:20 PM68 °FScattered showers. Clear.9 mph53%29.65 "HgN/A
3:20 PM66 °FSunny.13 mph52%29.65 "Hg10 mi
2:50 PM70 °FPassing clouds.10 mph43%29.62 "HgN/A
2:20 PM70 °FPassing clouds.10 mph40%29.62 "HgN/A
1:50 PM70 °FPassing clouds.9 mph40%29.62 "HgN/A
1:20 PM70 °FPassing clouds.9 mph35%29.62 "HgN/A
12:50 PM72 °FPassing clouds.10 mph38%29.62 "HgN/A
12:20 PM70 °FPassing clouds.12 mph40%29.62 "HgN/A
11:50 AM70 °FPassing clouds.9 mph40%29.62 "HgN/A
11:20 AM68 °FPassing clouds.12 mph40%29.62 "HgN/A
10:50 AM70 °FPassing clouds.12 mph40%29.62 "HgN/A
10:20 AM68 °FPassing clouds.9 mph43%29.62 "HgN/A
9:50 AM66 °FPassing clouds.10 mph49%29.62 "HgN/A
9:20 AM64 °FPassing clouds.10 mph49%29.62 "HgN/A
8:50 AM64 °FSunny.12 mph52%29.62 "Hg10 mi
8:20 AM63 °FSunny.10 mph56%29.62 "Hg10 mi
7:50 AM61 °FSunny.7 mph55%29.62 "Hg10 mi
7:20 AM59 °FPassing clouds.6 mph59%29.62 "HgN/A
6:50 AM59 °FSunny.3 mph59%29.62 "Hg10 mi
6:20 AM57 °FSunny.2 mph63%29.62 "Hg10 mi
5:50 AM55 °FClear.2 mph67%29.62 "Hg10 mi
5:20 AM55 °FPassing clouds.3 mph67%29.62 "HgN/A
4:50 AM57 °FClear.5 mph63%29.62 "Hg10 mi
4:20 AM57 °FClear.5 mph63%29.62 "Hg10 mi
3:50 AM59 °FClear.2 mph59%29.62 "Hg10 mi
3:20 AM59 °FClear.No wind59%29.62 "Hg10 mi
2:50 AM59 °FClear.2 mph59%29.62 "Hg10 mi
2:20 AM61 °FClear.5 mph55%29.59 "Hg10 mi
Weather by CustomWeather, © 2014

See weather overviewHow to use our weather pages